GFSSGP_700_spd_000.txt.gz
Wind_Speed
8 5 4 3 3 6 9 4 5 9 7 12 15 16 10 12 8 10 17 19 17 20 22 22 24 27 27 26 28 28 28 29 27 29 30 32 31 28 27 26 26 25 25 25 25 27 27 30 36
6 5 3 3 7 10 4 6 8 9 9 13 17 19 15 9 14 14 15 16 21 25 25 26 29 29 29 30 30 29 30 28 27 27 28 28 30 27 26 27 26 26 26 26 25 27 28 30 37
8 4 2 6 9 12 6 7 9 10 13 11 13 16 18 12 15 15 14 17 22 26 27 29 30 30 30 30 31 31 30 29 29 28 28 27 27 28 25 23 25 26 26 26 25 26 28 30 37
7 4 5 7 10 7 7 10 11 9 10 9 13 13 19 15 16 16 17 21 24 26 29 31 30 31 30 30 29 30 30 30 30 30 28 29 28 28 28 24 25 26 26 28 26 26 27 28 35
6 6 10 11 11 10 10 11 6 3 5 8 13 11 16 16 16 19 20 22 26 28 28 29 29 28 28 29 30 30 29 26 28 29 28 27 26 27 26 24 19 21 25 27 26 26 25 24 33
7 8 12 15 8 11 11 7 6 4 6 11 14 14 13 17 18 20 21 24 27 26 27 28 27 27 28 29 30 28 27 27 28 30 30 28 25 26 24 23 20 18 23 26 26 26 24 20 30
12 13 16 15 14 12 9 7 7 7 8 11 14 14 13 15 19 21 22 24 25 26 27 26 27 29 28 30 28 26 27 28 29 28 29 29 26 24 25 24 23 20 20 24 25 25 24 23 28
12 14 17 16 17 14 12 10 8 9 10 18 16 10 12 17 16 20 23 24 24 25 25 27 28 28 30 27 25 26 27 28 27 26 27 28 28 26 25 26 26 24 22 22 26 24 23 27 26
14 17 20 17 16 17 15 14 16 14 16 21 18 15 15 13 17 20 23 23 23 25 27 27 28 29 27 25 25 25 26 25 24 26 23 20 20 22 26 27 27 25 23 24 23 26 25 26 27
16 19 19 17 15 17 17 19 15 19 16 19 15 15 13 13 16 19 23 24 24 26 30 29 29 28 25 24 25 25 23 22 22 20 18 17 18 20 25 30 31 27 26 23 23 22 26 28 26
16 22 17 17 16 19 19 17 12 11 12 12 12 14 13 13 16 19 21 25 23 25 31 30 29 27 23 23 24 22 20 20 19 18 15 16 15 14 19 26 31 32 27 23 26 20 27 30 30
19 19 19 17 14 11 10 9 7 10 11 14 11 10 10 11 17 20 22 27 27 26 30 28 28 25 21 23 22 19 18 17 17 15 13 14 13 11 17 20 24 35 32 26 24 21 28 29 32
20 19 18 17 13 9 8 7 10 13 14 11 9 6 8 12 18 19 22 26 26 26 28 28 28 22 22 23 19 17 16 15 15 14 11 10 8 8 8 13 19 26 37 32 24 24 27 30 30
18 14 17 16 12 13 6 10 11 9 10 12 12 11 10 16 19 19 21 24 27 27 27 29 25 22 22 21 17 15 14 13 13 12 8 5 5 5 4 5 12 22 31 31 26 25 27 29 29
18 19 17 14 12 12 9 12 10 12 12 14 15 14 14 15 17 18 21 22 25 27 27 27 21 22 21 19 17 15 13 12 11 9 5 3 2 5 4 1 15 20 25 27 24 27 26 28 27
16 18 20 16 12 13 9 14 14 15 19 18 20 18 13 15 18 17 19 20 24 25 25 24 21 20 20 20 16 14 13 13 13 10 7 4 3 1 4 4 9 16 22 23 23 25 26 27 26
22 23 21 17 13 13 11 18 15 18 22 20 22 18 12 15 17 18 17 18 23 23 24 22 20 17 16 21 18 15 13 15 13 13 10 8 6 3 5 7 8 13 18 22 23 26 27 27 26
22 16 17 18 14 13 16 20 21 20 21 20 18 10 11 14 17 18 15 17 21 21 22 21 18 13 14 20 18 17 16 16 14 13 14 10 9 6 6 11 13 16 19 23 25 26 25 25 25
20 18 18 17 15 15 19 23 24 23 22 19 12 12 13 15 19 18 14 16 19 19 20 19 16 11 15 19 17 16 17 16 18 16 12 3 9 9 8 12 15 18 21 23 25 25 23 27 27
22 21 22 19 16 17 21 25 26 25 21 18 15 16 17 18 20 18 14 14 17 17 17 16 13 9 13 19 16 14 16 17 25 26 23 7 5 8 11 12 15 19 22 24 24 23 23 26 26
25 23 21 18 17 20 21 24 20 15 14 17 16 16 19 19 18 17 14 13 15 14 14 13 10 9 14 16 16 13 18 17 18 20 23 22 13 10 13 14 14 19 22 22 23 22 21 25 26
27 21 20 18 18 19 10 23 19 16 14 16 19 13 13 17 20 16 12 11 13 12 11 10 7 4 10 15 15 15 16 14 15 15 19 21 18 11 9 13 16 17 20 19 19 20 21 25 30
24 19 18 17 18 17 19 13 16 12 10 9 10 10 11 15 14 12 10 10 10 10 9 6 5 4 6 10 13 11 13 12 10 8 11 12 15 16 14 12 17 20 17 19 20 20 24 26 33
16 15 14 14 16 16 19 14 15 6 6 7 7 10 14 15 12 11 7 6 8 8 6 3 3 3 5 8 12 14 14 17 12 8 8 7 11 14 13 14 18 19 19 20 22 22 25 30 30
21 17 15 12 12 12 5 9 16 11 9 9 8 11 13 12 12 8 4 5 5 6 5 1 2 4 3 3 8 12 13 16 16 15 11 17 17 11 13 14 20 19 19 23 24 25 28 29 26
24 24 18 10 11 12 8 8 5 5 4 5 6 10 12 10 13 6 3 4 4 5 3 1 4 4 4 2 3 8 11 16 17 24 19 18 21 17 16 18 23 23 24 25 28 28 30 24 22
21 25 22 21 19 11 18 8 10 2 6 7 7 7 7 16 10 5 2 4 4 3 2 3 3 6 5 4 1 3 8 12 14 19 21 20 18 20 22 20 22 24 24 28 28 29 25 27 23
29 20 17 19 13 13 11 9 9 3 4 1 4 6 13 13 5 4 4 6 5 3 2 3 4 5 5 4 3 1 4 8 11 13 15 16 16 16 19 21 19 19 21 26 27 28 26 25 20
29 29 25 21 22 12 9 7 4 3 2 2 2 6 12 12 6 3 3 8 6 4 3 3 4 4 4 5 4 4 4 9 11 13 13 13 14 16 16 18 21 23 23 22 23 23 21 20 21
31 31 30 21 20 18 16 15 3 4 4 5 3 5 10 14 7 4 1 9 7 5 4 3 4 6 5 4 5 6 6 10 10 11 10 11 10 11 16 30 24 24 25 28 23 26 20 18 19

GFSSGP_700_spd_006.txt.gz
Wind_Speed
3 3 6 3 5 10 16 11 7 10 7 3 5 8 10 11 6 2 10 21 23 27 28 26 26 26 27 28 28 29 30 30 29 28 27 28 26 26 27 28 27 26 27 28 29 28 26 25 27
3 4 4 2 14 21 9 8 8 10 9 9 10 9 6 3 2 6 11 14 22 24 26 26 21 24 26 26 28 29 28 29 28 29 28 29 28 28 27 27 28 26 26 27 31 30 29 28 27
5 3 5 10 19 23 16 6 10 12 13 7 9 9 8 8 13 11 18 20 21 20 22 26 28 24 27 28 27 26 28 29 28 28 29 29 28 27 28 27 25 28 26 25 28 32 31 29 29
3 4 7 8 14 12 12 12 11 11 9 9 6 8 12 16 19 21 23 20 17 9 16 27 32 31 30 28 26 28 28 28 30 30 28 28 28 28 28 29 27 27 27 25 26 28 31 30 30
1 5 13 21 19 17 16 13 10 9 10 10 3 7 15 14 18 24 26 16 17 17 21 28 27 28 26 26 28 30 28 29 29 28 27 27 29 29 30 29 28 28 27 25 24 26 29 29 29
5 6 14 20 18 12 12 12 10 9 11 9 13 8 11 16 22 28 27 20 16 19 20 26 25 24 25 26 29 29 29 29 29 28 29 30 31 31 30 31 31 30 28 27 25 24 27 27 28
12 13 22 23 24 22 19 10 10 13 11 10 6 5 13 17 21 22 25 18 16 19 23 25 25 26 27 28 29 27 28 30 28 29 30 30 29 29 30 29 29 29 27 27 27 23 25 27 27
13 14 23 23 24 22 13 13 11 13 11 12 17 13 7 12 24 28 21 19 19 23 29 33 31 29 32 37 35 29 28 29 28 29 27 26 26 26 27 28 25 28 27 28 27 25 24 26 27
16 21 26 23 23 20 18 17 14 17 19 17 14 10 16 19 20 19 14 15 13 15 25 34 34 31 30 32 35 32 29 27 26 25 24 22 23 21 19 19 19 25 28 27 27 24 22 24 25
22 25 29 23 23 21 20 19 19 20 19 12 17 17 18 20 21 14 17 14 12 15 27 32 33 30 31 31 29 29 31 28 23 22 21 21 20 18 17 18 18 20 24 27 27 25 21 22 25
25 32 28 26 24 23 23 21 18 18 16 14 7 6 18 18 19 14 11 11 21 28 27 33 35 31 31 28 27 28 28 22 19 20 21 21 19 18 16 16 13 16 21 25 27 24 23 21 25
31 30 31 30 27 26 23 22 22 18 17 16 14 15 18 22 20 16 16 17 26 27 30 32 34 33 31 26 25 26 25 22 19 18 19 19 17 16 12 12 14 17 19 21 23 23 23 22 25
32 31 31 29 26 26 25 25 23 20 16 14 13 16 18 18 23 20 23 24 25 27 28 30 32 31 28 24 22 22 19 18 19 21 20 17 14 13 13 14 15 15 19 23 21 20 21 24 27
32 30 30 29 28 26 26 25 23 23 18 15 16 19 16 17 22 28 28 23 23 25 26 29 30 29 26 21 24 20 17 18 20 21 21 23 21 11 11 11 13 15 17 21 25 19 19 23 27
32 34 32 30 27 29 25 28 26 21 21 21 18 18 20 23 26 23 26 21 22 25 25 28 29 28 23 19 22 19 19 19 19 17 18 18 15 11 10 10 11 13 17 20 26 23 17 20 21
32 33 36 31 29 30 29 31 22 20 22 23 22 21 21 21 17 23 29 22 20 23 24 27 26 25 23 19 19 18 17 17 16 15 18 16 13 12 9 8 6 8 13 18 26 26 15 14 25
33 35 35 30 26 28 28 28 22 20 21 22 20 21 24 22 25 31 26 21 21 21 21 26 25 22 21 19 17 14 15 15 14 18 18 14 9 10 9 6 3 6 11 14 21 25 15 18 25
32 31 31 31 25 26 22 24 22 22 23 24 26 26 23 23 27 29 19 20 20 20 20 24 22 21 18 19 20 12 9 12 18 19 19 8 6 8 8 6 3 7 14 18 22 21 18 19 24
30 28 30 28 23 13 21 28 20 20 24 28 29 26 24 25 25 27 18 20 18 18 19 23 21 18 15 18 14 12 9 11 14 19 21 13 5 8 7 6 4 8 16 19 19 22 20 25 24
34 32 30 26 23 21 21 22 21 26 31 27 25 24 23 25 25 28 22 19 18 16 17 20 18 16 15 16 10 11 12 15 15 15 17 19 3 8 8 8 6 10 15 20 22 21 25 27 28
35 35 30 29 22 22 22 23 23 30 25 22 23 19 14 22 23 25 23 18 17 15 16 18 16 14 12 13 13 16 16 16 14 13 14 13 8 8 9 9 9 10 17 19 22 23 28 21 22
35 30 27 24 22 22 19 21 24 23 24 17 14 16 19 22 23 21 19 19 16 14 16 16 14 12 9 11 14 16 18 18 11 12 11 9 12 6 9 9 13 12 17 19 20 23 23 19 32
35 26 25 21 24 23 21 21 26 21 25 16 5 9 19 21 19 17 18 16 14 13 15 14 12 9 7 9 13 20 20 13 18 10 9 6 14 3 11 9 14 17 16 20 18 14 11 12 19
30 26 21 20 22 18 22 24 26 26 5 3 7 9 13 17 16 21 20 14 12 12 14 13 10 8 6 8 12 17 16 18 15 6 5 7 8 4 12 13 16 17 17 17 16 15 17 21 20
29 26 19 15 16 13 25 28 29 14 14 8 9 5 9 14 21 18 13 10 10 11 12 12 9 6 7 9 12 15 16 23 13 12 12 8 8 5 13 15 17 18 17 18 15 13 15 19 21
35 29 23 15 11 18 28 26 11 6 6 7 7 6 9 16 21 15 10 9 10 11 10 11 7 6 7 9 10 13 14 15 15 11 13 10 10 9 14 14 18 18 19 20 16 13 16 16 22
33 38 29 26 25 18 18 16 12 13 7 8 8 10 13 18 17 10 10 8 11 8 8 9 6 7 7 7 9 11 9 9 11 13 14 8 6 10 11 13 15 18 20 19 19 19 16 19 20
36 31 27 27 16 15 16 20 10 14 4 11 8 5 10 11 9 10 7 10 10 7 7 7 4 6 7 6 7 9 8 7 10 12 16 8 6 10 11 12 14 16 19 19 18 19 21 18 18
36 36 33 24 27 12 10 15 7 10 11 6 4 10 4 6 9 8 9 10 8 5 6 5 3 4 4 4 6 6 5 6 10 15 19 10 9 13 12 13 15 15 18 19 21 21 19 18 15
37 39 32 25 23 18 18 8 9 9 7 6 13 6 0 5 11 9 10 8 7 4 4 3 2 5 2 3 5 4 4 4 7 13 17 17 9 11 12 19 17 16 17 20 17 17 16 16 15

GFSSGP_700_spd_009.txt.gz
Wind_Speed
6 5 5 2 1 5 14 15 18 10 11 8 11 14 8 7 10 11 16 18 23 30 31 30 25 25 24 26 26 26 27 26 25 24 26 26 26 26 27 27 28 29 27 25 27 27 25 27 27
5 4 2 2 6 10 11 7 11 10 15 13 14 10 8 6 11 15 18 29 31 29 29 27 24 20 23 26 26 26 25 25 26 27 27 28 28 28 28 29 28 29 28 26 26 29 30 27 29
4 1 3 4 11 18 14 6 12 15 14 16 13 4 11 13 19 21 23 25 30 28 26 23 25 25 26 27 26 24 25 27 28 27 29 30 29 28 28 26 25 27 28 27 26 27 31 32 30
5 2 3 10 13 14 15 12 5 13 7 14 7 9 12 14 17 17 21 24 31 29 25 24 24 27 29 27 25 26 27 29 28 28 30 30 29 28 28 28 26 27 28 27 26 27 29 32 32
5 2 11 15 21 22 21 18 12 12 7 13 12 10 13 11 15 21 24 25 26 25 20 21 21 21 22 24 25 27 28 29 29 30 30 30 30 28 29 30 29 29 28 28 28 25 25 30 30
9 2 10 18 22 26 18 13 11 15 10 10 7 9 9 12 19 24 24 23 26 22 19 18 22 22 23 24 23 25 28 29 30 30 28 28 28 29 30 32 32 29 29 29 28 27 24 27 27
12 8 16 23 27 24 17 11 10 13 17 17 17 12 18 18 23 25 27 28 22 18 19 19 22 28 28 29 30 31 30 28 27 28 28 28 27 27 28 30 29 27 27 27 29 28 26 23 25
12 8 17 22 24 25 22 27 15 9 15 19 19 20 25 27 29 24 24 23 18 20 19 25 30 34 37 34 35 35 32 30 26 27 28 26 24 25 25 26 25 25 27 26 27 28 27 24 21
7 19 27 26 21 22 27 25 13 18 18 16 21 22 23 19 21 22 25 22 20 24 25 27 30 34 39 38 39 36 31 27 23 23 24 22 22 22 22 21 21 19 19 24 26 27 25 23 20
18 26 32 23 22 26 28 27 21 19 20 23 19 22 20 16 23 22 23 19 18 20 27 30 31 31 35 34 37 34 30 30 22 21 19 20 21 20 20 20 18 18 17 18 25 26 25 22 19
26 33 28 25 23 23 26 30 28 23 21 16 14 14 13 19 22 23 23 22 20 23 31 32 30 32 35 34 32 29 26 26 19 17 18 20 20 21 21 19 18 17 18 17 22 26 24 21 18
32 34 30 29 31 33 30 38 37 20 21 22 20 23 18 25 28 27 23 22 20 27 30 28 29 33 36 33 29 24 27 22 19 18 17 19 21 20 18 18 16 13 16 16 20 23 21 20 20
30 29 32 31 33 36 32 32 26 25 25 18 17 19 23 31 30 28 28 29 27 29 27 26 29 32 35 31 26 23 22 20 20 20 21 18 19 18 20 15 15 14 15 16 18 20 21 19 20
32 39 39 38 34 33 34 33 31 29 27 24 28 24 26 29 25 23 29 32 34 31 26 28 29 30 32 29 25 22 19 19 19 18 17 18 18 19 12 12 12 14 15 15 20 18 19 20 20
35 39 38 38 37 39 32 37 32 26 25 25 27 27 29 25 24 30 32 31 30 24 24 29 29 30 30 27 24 22 18 18 16 18 18 23 16 16 13 10 12 13 14 14 20 21 18 20 21
36 37 43 42 35 36 31 45 37 32 25 25 29 31 27 24 26 29 33 31 24 21 25 27 27 30 30 25 22 18 22 14 14 21 20 21 16 11 12 9 11 9 9 15 21 23 19 16 19
37 37 36 36 33 32 37 39 38 36 25 25 27 26 24 29 26 37 33 28 21 22 26 26 24 27 25 22 22 23 16 11 17 19 22 18 10 7 9 8 7 6 6 14 22 25 17 14 21
33 32 31 35 30 30 34 26 37 20 24 28 25 25 27 22 33 38 31 25 20 21 24 24 22 24 21 20 22 16 12 10 13 16 18 21 8 5 7 7 6 4 7 13 24 27 17 15 21
31 28 33 35 35 33 24 25 19 27 23 23 24 27 30 24 29 33 28 23 23 25 23 23 19 21 18 16 16 16 17 17 17 18 18 18 10 5 6 6 3 4 9 13 23 26 20 19 24
34 35 39 39 37 24 26 23 20 16 21 23 30 28 22 25 26 29 27 22 25 26 23 20 18 17 15 12 15 17 16 17 21 17 17 16 14 4 6 6 4 6 13 17 21 23 21 23 25
37 38 39 38 31 27 27 21 19 21 25 24 21 21 25 23 23 24 24 23 22 23 22 17 16 15 12 9 15 20 21 21 17 15 14 15 15 4 8 7 5 8 13 17 17 21 21 24 28
38 36 31 32 34 26 20 15 24 24 25 22 25 19 14 17 20 22 19 19 18 20 19 15 14 12 9 9 14 20 21 21 19 12 10 12 16 3 9 7 8 11 16 19 17 17 21 26 28
42 31 34 36 38 34 21 18 27 26 25 22 7 7 11 16 20 18 16 18 20 17 13 15 12 11 7 7 13 19 19 25 16 11 8 10 11 1 8 9 10 14 15 19 17 17 21 18 23
29 34 37 36 35 14 20 19 32 26 24 9 9 7 10 15 17 15 18 17 16 13 13 12 11 9 7 5 10 16 16 20 14 17 12 12 10 2 9 8 11 15 16 17 16 12 18 10 22
39 34 20 10 7 7 19 19 31 20 12 12 9 6 6 10 13 16 18 16 11 10 13 9 10 7 7 5 10 14 15 17 17 13 19 13 9 4 10 9 13 15 16 15 14 13 20 14 15
42 41 21 7 4 7 26 18 31 24 24 14 8 6 6 12 15 17 17 12 7 12 9 10 9 5 6 6 9 11 13 14 16 16 20 10 10 10 10 12 16 15 17 16 14 13 18 19 18
39 41 35 22 12 10 19 16 9 17 17 12 10 11 12 13 11 13 12 6 11 9 6 9 9 6 4 7 9 10 11 12 15 17 19 7 10 9 10 11 15 15 18 17 14 14 16 16 20
45 29 28 16 8 5 7 18 20 21 16 15 16 12 8 6 6 8 6 9 11 4 5 7 7 5 4 6 8 9 11 12 16 22 13 9 9 12 12 12 14 14 16 15 15 14 19 20 17
42 41 33 29 21 5 2 11 18 20 19 20 14 9 8 4 5 6 7 10 5 2 3 5 4 3 3 5 7 8 10 10 16 19 13 10 12 10 11 14 14 15 14 15 17 17 19 18 13
38 37 33 26 16 27 22 10 16 16 17 14 10 6 7 6 4 5 8 6 3 2 2 4 3 1 1 3 4 5 9 8 12 18 15 10 8 10 13 14 15 16 15 16 19 17 18 16 13

GFSSGP_700_spd_015.txt.gz
Wind_Speed
10 8 5 4 4 4 5 5 6 7 10 11 14 15 19 23 21 15 20 19 22 23 25 24 24 22 23 23 23 25 25 25 23 21 22 24 25 25 25 23 23 24 25 25 26 26 26 27 30
9 8 6 3 4 5 0 5 4 15 10 15 17 16 19 22 19 20 17 19 23 23 24 26 24 21 20 19 19 20 20 21 22 24 24 24 25 26 26 27 26 26 26 27 27 27 28 29 30
8 8 5 4 8 8 4 7 10 13 17 17 16 16 20 23 17 16 17 21 21 23 23 25 21 19 20 20 22 23 24 23 23 25 26 26 27 28 28 28 28 28 27 27 26 26 28 29 30
7 7 5 9 11 9 7 13 17 9 4 10 15 18 21 17 17 19 20 22 22 21 22 22 19 19 19 22 24 27 26 25 27 28 29 28 26 28 29 29 28 27 26 27 27 27 26 27 28
7 8 11 14 12 11 9 3 7 11 15 18 22 21 18 20 20 17 21 21 23 21 24 22 17 17 19 22 25 28 30 30 29 28 28 28 27 26 26 26 27 28 27 27 28 28 27 27 29
9 9 12 15 16 14 12 7 5 11 13 22 17 21 24 25 25 19 20 19 21 21 23 23 18 18 18 21 25 27 30 32 32 31 27 26 26 26 26 25 25 27 28 27 26 27 28 28 28
11 13 18 19 18 15 6 8 10 12 12 16 22 23 25 25 22 21 17 20 21 23 25 25 21 19 20 24 27 29 32 36 36 31 28 29 28 27 25 23 22 23 24 25 24 25 25 27 28
17 16 20 24 21 18 13 11 14 13 13 18 20 19 24 24 25 23 20 20 23 23 23 25 25 21 22 25 29 31 34 38 38 32 28 30 28 26 23 21 21 22 22 22 24 25 25 25 28
21 23 24 27 24 17 16 18 17 16 18 18 26 26 25 25 26 24 22 21 24 26 27 25 25 24 25 28 33 34 35 38 39 33 30 27 24 21 21 22 22 22 22 21 20 21 21 25 27
28 32 30 25 26 25 20 24 26 21 20 19 22 31 31 25 24 22 24 21 26 27 30 27 26 25 27 29 32 34 36 40 39 33 28 23 22 21 21 22 23 21 21 20 18 19 18 23 26
36 39 29 29 29 30 30 30 26 25 27 20 24 27 27 23 25 23 28 26 25 23 25 25 24 25 27 30 33 36 37 41 40 33 27 25 24 24 24 24 23 21 19 19 20 20 20 20 24
41 40 35 29 27 35 35 33 31 27 26 21 23 34 36 30 25 26 25 27 29 26 27 26 25 25 26 30 33 36 37 41 37 30 24 22 21 24 23 25 21 20 21 21 21 20 22 20 23
43 36 36 36 38 38 36 33 36 33 25 21 28 28 32 31 31 29 30 30 29 28 29 26 26 26 26 30 34 35 38 40 36 28 25 18 19 21 26 27 23 22 23 19 17 17 20 21 23
38 41 39 38 40 42 40 39 36 37 29 28 32 34 31 30 31 28 31 33 27 27 29 25 26 26 27 29 32 34 38 36 32 27 19 20 20 23 25 22 19 19 16 16 16 18 19 20 23
40 43 41 41 41 42 37 45 44 38 33 32 32 32 32 32 29 32 31 33 32 29 28 26 26 26 29 30 30 33 35 30 25 20 18 19 19 24 24 18 19 15 14 14 17 17 20 21 25
36 39 43 45 40 43 38 54 46 36 36 35 34 34 33 37 34 33 33 33 31 30 30 28 27 28 30 32 31 33 29 26 22 17 18 20 22 22 21 16 15 14 12 15 17 17 19 21 24
38 44 45 47 42 40 36 46 42 36 36 38 29 29 35 33 36 35 31 30 32 30 32 29 28 29 31 31 29 29 24 23 21 20 21 21 20 20 18 12 11 11 11 12 13 17 20 22 23
38 45 46 50 41 26 31 36 35 30 31 27 31 31 27 25 26 30 31 29 29 31 31 30 30 30 31 28 27 24 22 22 22 20 20 16 16 17 15 11 10 10 11 11 13 18 22 20 23
45 38 38 49 38 32 33 32 32 24 27 27 26 27 23 21 23 29 31 30 24 31 31 28 29 29 29 24 24 19 19 22 22 21 17 14 11 15 15 10 10 9 10 9 13 19 22 20 22
43 42 49 46 39 30 31 32 29 23 21 22 23 23 24 24 27 32 31 30 24 24 26 27 28 28 23 23 22 16 17 20 21 17 12 10 13 15 13 10 8 7 7 8 15 22 21 21 22
48 46 47 46 30 27 30 36 25 20 22 12 13 15 24 25 25 25 26 22 19 20 24 26 25 23 21 23 19 15 17 20 19 17 10 9 9 13 5 7 6 6 7 9 19 24 20 17 20
45 46 44 41 33 22 4 9 21 25 22 19 18 22 23 24 25 22 9 11 14 17 22 24 22 20 22 20 15 13 15 17 17 14 12 12 9 9 6 5 4 4 7 11 21 22 15 13 18
52 41 36 34 33 31 33 17 33 23 24 20 21 20 23 21 12 10 8 11 13 17 23 20 17 20 19 14 13 12 15 15 15 13 18 10 8 1 6 5 4 7 11 15 22 19 13 13 21
38 32 21 25 33 20 40 16 21 28 24 15 9 9 11 13 8 8 10 11 14 19 19 16 16 18 14 11 11 11 13 13 13 15 17 11 3 2 5 6 7 10 14 14 17 17 14 16 20
38 31 5 6 9 6 25 15 33 11 13 18 18 15 14 11 8 4 6 11 11 14 16 12 16 12 8 8 8 10 10 11 14 17 8 8 1 9 8 9 12 12 13 12 14 14 16 16 17
47 39 15 7 4 5 22 10 28 17 17 20 21 17 13 13 8 3 7 9 13 13 10 14 11 8 6 4 6 7 8 11 16 7 8 7 8 9 9 12 15 15 15 15 14 15 15 13 14
38 49 39 6 5 1 9 26 32 24 28 26 17 16 13 11 5 5 6 10 10 8 12 8 7 5 3 3 4 6 7 12 10 9 8 7 8 9 11 13 16 15 13 11 11 13 10 9 18
41 27 32 29 5 4 6 12 19 16 8 9 14 13 12 8 6 8 8 7 8 8 6 5 3 3 0 2 2 5 6 9 9 10 10 8 8 9 13 13 12 12 11 9 9 13 13 15 19
42 30 30 30 17 5 2 12 17 16 16 16 13 13 7 7 8 7 7 7 8 6 3 2 2 2 1 2 2 2 2 8 9 7 9 7 9 9 12 14 14 13 12 9 10 14 14 19 17
47 48 30 26 19 28 14 21 12 13 16 20 18 13 7 5 6 6 7 6 5 6 3 1 2 2 1 3 2 2 2 5 7 5 8 8 11 10 13 13 14 12 12 12 11 13 18 16 14

GFSSGP_700_spd_021.txt.gz
Wind_Speed
10 10 8 8 5 6 8 5 8 5 2 3 4 9 12 14 14 13 15 17 17 18 18 17 18 18 16 15 15 16 17 18 18 17 16 15 15 15 16 18 19 19 20 20 20 20 21 23 24
10 10 9 7 6 8 9 7 1 3 6 7 6 10 12 16 17 17 16 17 15 14 16 17 17 16 15 13 14 15 17 17 20 21 21 20 19 19 17 18 20 20 20 21 22 23 22 23 24
12 12 10 6 11 11 8 7 1 1 1 4 5 8 12 16 16 17 19 18 16 14 15 18 18 15 15 14 14 15 17 19 21 24 26 25 22 20 19 17 18 21 22 21 22 25 23 23 24
13 13 13 13 12 13 10 3 3 8 5 3 5 7 10 13 13 15 20 18 17 17 19 20 19 17 16 15 16 18 20 21 22 23 28 30 27 23 20 18 18 17 20 22 22 24 24 23 25
15 15 17 15 13 12 11 7 7 3 2 3 7 9 10 14 13 16 19 17 17 16 20 19 19 16 17 16 17 19 21 23 24 26 28 31 29 26 23 20 19 20 21 22 23 24 21 23 24
16 16 14 17 17 10 9 10 15 9 3 4 5 8 10 5 10 15 18 18 17 17 18 16 15 15 17 16 17 18 20 23 24 27 28 31 31 27 23 22 21 21 21 22 22 22 23 20 23
18 18 20 21 19 16 10 7 12 13 10 13 15 14 13 8 9 16 20 20 20 19 19 13 11 12 14 17 18 19 21 23 25 28 30 32 32 27 22 18 17 18 19 19 20 22 23 23 23
22 21 24 23 20 18 18 7 12 15 12 12 18 17 16 14 14 10 14 20 23 22 20 12 9 10 13 17 20 21 22 24 26 28 30 33 32 28 22 19 17 16 16 17 18 19 22 24 26
25 25 29 28 23 19 20 19 16 20 21 19 22 20 19 17 17 15 18 17 19 21 21 15 11 12 15 17 19 22 23 25 27 29 31 33 32 25 21 21 21 19 18 19 19 20 22 24 26
33 33 33 30 29 27 25 26 28 29 28 23 22 21 24 25 20 19 22 19 18 18 20 19 15 12 14 16 19 22 23 25 27 30 33 34 30 25 22 21 19 20 21 21 20 21 22 24 26
42 48 33 33 33 37 32 31 35 35 32 25 25 26 25 30 25 21 20 19 19 21 22 22 17 18 15 19 20 22 24 26 28 31 33 35 29 26 22 18 17 17 19 21 23 23 24 24 25
48 49 42 40 40 41 37 38 37 38 33 27 29 31 30 32 27 22 18 17 18 19 21 24 23 21 18 22 23 23 24 26 29 32 33 33 28 24 19 20 21 21 22 23 22 23 22 21 24
50 53 48 46 42 40 38 38 36 38 29 30 34 36 36 34 31 26 22 18 20 19 21 24 26 26 23 24 24 25 25 27 31 32 33 30 27 23 21 21 21 24 23 21 21 22 22 23 23
44 46 44 42 41 37 41 36 42 36 26 33 36 40 43 39 32 32 27 22 22 21 23 26 29 29 26 26 27 26 25 28 31 32 32 30 26 22 22 22 24 24 24 19 15 15 15 16 18
47 46 39 36 37 40 36 46 46 33 34 39 38 45 41 32 33 33 29 27 26 26 27 28 31 32 29 28 29 27 26 29 31 31 30 28 26 24 24 25 24 23 22 15 13 13 13 14 16
39 44 34 36 40 40 30 54 40 31 36 41 44 47 35 28 27 29 30 31 29 31 35 31 29 34 31 31 31 27 26 29 30 30 28 28 28 25 24 22 22 22 19 13 14 13 14 16 17
36 33 37 27 30 23 33 46 36 34 44 49 47 40 33 25 22 20 23 29 29 26 28 28 28 33 33 33 31 27 27 30 30 29 28 29 28 24 21 20 18 20 16 14 14 15 17 18 21
35 25 24 22 22 31 36 45 42 41 48 47 46 34 25 17 16 19 23 19 18 23 26 29 25 28 37 35 30 27 28 29 28 27 28 27 27 23 18 22 16 16 14 14 15 16 16 16 18
42 30 33 32 34 34 41 46 44 47 46 48 38 26 17 13 18 18 20 21 22 23 28 27 24 30 34 32 28 26 29 27 27 26 26 26 24 21 18 19 19 18 13 14 14 14 13 14 16
49 38 33 28 34 35 37 49 48 44 44 39 32 21 13 13 15 18 19 20 24 28 30 26 24 33 29 28 26 27 28 26 26 24 25 24 21 21 19 18 20 10 12 12 12 10 12 14 15
49 45 37 35 27 25 31 42 34 43 42 34 27 19 12 8 10 17 21 25 27 29 27 19 23 25 23 23 24 27 24 26 23 24 24 21 18 17 17 14 8 8 9 10 9 10 12 13 13
43 48 37 34 26 28 21 28 27 37 40 35 24 17 11 14 16 20 22 23 18 16 14 16 16 16 18 20 25 23 25 22 22 23 22 20 23 14 11 6 6 6 7 9 9 11 14 12 11
47 30 32 31 30 26 28 24 33 29 39 25 26 16 13 17 22 20 12 13 12 10 9 11 11 13 16 21 22 22 21 19 21 22 21 22 17 10 6 6 5 5 5 6 10 12 11 8 9
21 17 20 17 22 19 30 25 27 31 30 16 25 17 13 15 14 10 11 15 13 9 8 9 10 12 18 19 20 19 16 18 20 19 21 14 10 5 5 6 4 5 5 10 14 13 8 7 10
26 23 8 8 8 10 21 17 36 29 21 16 24 16 11 9 8 9 12 11 10 6 7 8 10 16 16 18 16 12 14 16 17 13 10 9 3 5 6 5 5 7 9 13 14 9 5 6 12
38 33 14 9 7 10 10 13 21 21 13 12 17 17 13 9 9 13 12 6 7 7 7 8 13 15 16 13 10 10 11 11 8 10 7 4 3 5 5 6 8 10 9 11 10 6 5 9 12
37 39 29 7 1 5 7 10 19 12 13 15 14 16 13 9 11 13 11 7 8 8 6 10 13 14 11 9 9 9 7 6 7 7 5 3 3 5 7 9 10 9 9 10 9 7 8 10 8
32 38 21 19 11 8 7 6 14 7 19 14 12 16 16 10 12 15 12 10 10 7 7 12 11 10 8 8 8 7 5 5 5 6 4 3 5 8 9 11 11 11 11 10 10 11 8 8 11
30 40 19 19 11 6 3 7 13 4 16 14 7 8 10 10 10 11 12 10 9 5 9 10 9 9 7 7 6 5 4 6 7 4 1 4 7 10 12 12 10 9 9 9 9 9 6 9 14
36 35 36 20 14 13 7 5 10 18 16 13 6 5 11 11 8 11 9 8 5 6 8 9 8 9 6 6 3 2 3 6 4 1 4 5 8 11 13 11 10 8 7 9 10 8 9 13 12

GFSSGP_700_spd_024.txt.gz
Wind_Speed
9 9 8 8 4 6 12 9 7 6 3 5 4 4 6 8 7 11 13 14 15 14 12 12 17 21 17 13 12 13 14 16 16 16 18 18 16 16 17 19 20 20 20 19 20 20 20 22 24
10 9 9 6 6 10 12 11 9 8 7 6 8 8 7 7 9 12 13 14 16 15 14 14 16 17 15 11 9 9 12 13 14 15 18 19 18 15 15 17 20 21 22 21 21 22 22 22 24
11 11 6 6 11 12 7 11 8 6 7 6 6 9 7 5 9 10 12 16 17 15 16 16 15 14 11 8 6 7 9 12 14 16 17 19 21 20 16 15 16 18 21 23 22 22 23 24 24
10 10 11 11 12 10 9 10 8 5 7 10 9 6 8 6 10 10 12 14 16 16 14 17 15 13 11 10 9 9 10 12 14 16 19 21 24 24 21 18 17 17 17 17 19 21 23 25 24
12 10 13 15 14 13 13 13 11 9 8 7 11 8 8 10 13 12 9 13 16 19 14 17 11 11 11 12 12 12 12 14 16 18 20 22 25 27 25 22 19 20 19 20 19 20 20 24 25
11 11 15 19 17 13 13 14 15 14 12 9 5 7 7 11 14 15 16 11 14 19 18 19 12 10 11 13 14 15 17 18 20 22 23 24 26 28 28 23 20 19 19 20 22 21 18 22 23
16 15 18 19 18 15 13 12 13 12 14 10 10 10 10 9 17 18 18 15 14 16 21 22 15 13 9 10 14 15 16 18 21 23 25 27 29 31 29 23 19 18 18 18 19 20 22 24 23
18 18 21 20 19 16 12 9 10 12 14 18 18 12 10 17 21 23 17 16 15 16 18 26 17 17 13 10 12 14 14 17 20 23 25 28 30 32 30 24 22 20 20 19 19 19 20 22 23
21 20 25 23 20 17 11 8 14 15 16 16 18 23 20 23 21 23 22 21 20 17 19 23 24 19 18 16 13 16 17 18 20 23 25 28 30 33 31 26 24 22 21 20 20 21 22 23 24
26 26 31 28 21 21 19 18 16 21 20 22 20 20 23 23 22 24 26 25 24 19 22 23 28 23 23 22 19 17 18 20 21 23 27 29 30 32 29 27 24 21 20 19 19 21 22 23 25
31 44 37 34 30 28 28 28 25 25 30 30 26 23 23 26 26 26 26 27 24 20 21 22 24 28 27 27 24 21 20 21 22 24 28 30 30 32 29 26 23 19 19 19 20 22 24 27 27
44 42 35 37 36 33 31 32 33 34 31 34 31 26 26 28 30 30 30 29 25 24 20 21 22 25 30 31 26 25 24 24 24 25 28 30 31 30 29 27 24 21 21 21 23 24 28 27 27
44 38 37 36 38 36 35 39 43 40 35 36 30 25 24 31 33 38 42 33 29 23 22 22 24 28 31 35 30 28 26 27 27 27 30 30 30 30 30 28 25 23 24 25 25 23 24 27 27
41 40 41 39 40 39 39 43 40 40 37 36 29 28 30 31 38 46 45 34 33 26 26 25 28 27 33 34 34 29 29 29 28 30 31 30 29 30 30 28 25 25 25 23 23 22 19 21 24
39 41 40 37 36 40 38 45 43 40 38 37 35 32 31 40 43 48 41 34 33 29 30 28 31 30 31 33 35 33 30 29 30 31 30 29 30 30 30 28 25 23 21 20 21 18 17 15 16
32 38 44 42 36 32 31 54 41 31 29 32 32 34 39 44 45 43 33 30 31 31 32 34 31 37 33 25 32 34 33 29 30 32 30 30 31 29 27 28 25 21 20 19 16 14 16 14 14
40 47 47 40 35 36 36 55 43 33 30 28 33 38 44 47 47 32 26 26 29 30 29 32 31 29 27 23 24 36 34 30 30 31 29 30 30 28 28 26 21 22 21 16 16 17 16 16 17
45 37 41 43 32 32 39 50 39 36 34 34 33 34 41 49 40 22 24 25 24 24 23 21 24 29 27 29 31 32 31 29 30 31 29 30 28 28 27 23 21 23 18 18 17 17 17 17 18
41 39 44 42 37 38 38 43 41 37 35 35 36 37 43 44 22 22 22 21 17 20 20 23 26 29 28 26 28 27 29 28 30 30 30 28 27 26 23 22 22 24 20 22 13 15 16 15 14
41 40 45 38 32 34 35 43 41 38 39 39 40 42 38 32 22 19 21 20 18 18 23 27 31 29 23 26 25 26 25 28 29 29 29 26 26 24 21 25 22 20 17 9 12 15 15 14 14
47 45 37 38 29 27 34 42 42 40 40 41 38 36 35 25 20 14 14 18 20 22 24 30 31 21 20 20 21 22 24 27 26 28 25 25 25 23 26 18 19 11 8 9 11 11 12 11 12
50 37 34 35 30 40 32 38 45 38 39 36 34 32 29 23 19 15 14 18 20 22 22 21 17 15 14 16 17 19 23 23 26 23 24 25 24 25 18 14 9 8 8 8 8 8 10 12 12
49 29 33 31 32 35 38 36 38 28 34 36 33 24 22 21 18 18 17 20 12 14 15 14 12 11 12 13 16 20 20 21 20 21 23 23 23 16 12 9 7 7 6 6 6 8 12 11 11
31 29 26 26 27 29 32 34 38 40 39 31 22 20 20 21 17 18 18 12 11 12 13 11 11 10 11 13 17 18 17 16 18 19 19 14 13 12 8 6 5 3 3 6 10 14 10 10 11
36 34 13 16 18 16 24 23 38 29 23 24 15 14 22 17 13 12 13 12 10 9 10 9 9 10 12 15 16 15 12 13 15 12 12 10 8 6 5 4 2 3 5 11 13 10 6 8 9
49 42 25 18 14 14 23 14 24 15 18 23 21 16 19 17 15 13 14 12 7 7 8 9 10 11 12 14 13 10 10 12 10 10 10 6 3 4 3 2 4 6 8 11 8 4 3 6 10
43 50 39 12 8 10 13 17 21 16 15 14 17 22 23 18 14 13 15 11 6 7 8 9 10 9 11 11 8 9 10 8 9 8 8 3 2 4 4 5 6 7 8 8 6 5 4 7 9
41 39 36 27 15 12 10 16 12 2 8 12 21 25 23 20 13 14 16 11 7 8 8 9 9 8 9 7 7 9 8 8 8 7 7 1 3 5 6 8 8 7 7 8 6 7 6 7 6
37 43 36 31 18 13 6 8 13 11 11 16 14 19 21 18 14 12 15 11 9 7 9 9 6 8 7 7 7 8 7 8 7 4 3 2 4 6 9 10 8 7 7 7 7 5 5 7 8
37 34 40 29 26 18 12 4 2 8 13 13 13 19 20 18 13 10 11 10 8 7 8 7 6 7 7 7 6 6 7 6 2 1 1 5 6 7 8 8 7 5 5 5 7 6 6 9 9

GFSSGP_700_spd_027.txt.gz
Wind_Speed
8 7 7 9 5 9 15 12 8 7 6 6 6 4 6 8 9 9 15 12 14 15 15 15 14 15 15 13 10 9 11 13 14 15 16 17 17 16 15 17 18 18 19 20 21 21 21 22 22
9 9 9 6 10 18 19 13 12 9 6 6 8 9 8 6 5 6 8 11 13 14 14 14 13 15 13 12 8 9 10 12 13 14 15 16 18 20 19 17 17 18 19 20 21 22 22 22 23
10 11 5 7 16 19 8 12 14 7 7 6 7 6 6 3 4 3 11 12 12 13 13 14 12 13 11 10 7 7 8 10 12 14 16 18 20 21 22 20 18 19 18 19 21 22 23 24 24
11 9 11 14 19 14 13 5 9 5 9 8 7 9 6 9 5 7 14 16 13 12 13 15 12 10 10 9 8 8 8 9 11 13 16 19 20 23 25 25 21 18 19 20 19 18 21 24 25
12 10 16 19 19 17 13 15 8 9 11 9 8 10 8 7 12 15 17 18 20 17 14 15 15 10 9 6 7 9 9 10 11 13 15 18 19 21 25 28 25 20 18 17 20 19 17 21 23
12 12 18 21 21 19 16 15 16 15 14 13 10 8 9 10 7 11 18 20 19 19 19 18 19 13 12 9 8 7 9 11 13 14 17 18 20 22 24 27 25 21 19 19 20 21 21 23 21
18 17 19 21 22 19 16 16 16 16 16 20 13 8 10 10 11 17 21 22 23 21 21 21 18 20 17 14 14 12 13 13 15 18 19 21 24 24 25 28 25 22 20 21 21 20 21 23 24
18 18 24 25 24 23 19 14 15 14 14 6 16 13 14 9 15 20 15 14 17 22 23 21 23 21 22 20 19 17 18 16 15 19 21 23 26 26 26 28 27 25 23 22 22 22 21 20 21
17 25 28 25 24 23 19 18 15 16 13 13 13 16 19 22 20 16 15 16 18 20 23 28 24 23 23 25 24 23 23 20 18 19 20 23 27 28 30 32 31 26 25 22 21 21 22 22 21
26 28 28 24 23 24 23 17 19 14 16 19 20 21 23 18 22 18 18 20 20 24 25 26 25 26 25 25 29 28 26 24 23 21 23 24 29 30 28 30 32 28 26 22 21 20 21 22 23
31 38 29 28 26 26 32 32 28 28 30 26 26 27 25 26 25 24 23 23 24 25 25 29 28 26 25 27 31 33 29 27 26 25 25 27 28 32 31 32 33 29 23 23 24 22 21 23 24
37 39 36 37 35 40 41 37 39 35 35 29 31 29 27 25 25 25 24 25 28 27 28 25 29 29 24 27 31 33 32 31 29 28 27 28 30 31 29 30 29 31 25 25 23 24 25 25 27
44 43 41 44 43 42 39 43 42 41 38 35 34 32 28 26 25 25 26 29 31 30 28 29 32 28 23 27 32 34 33 34 32 30 30 28 30 33 31 31 30 30 27 25 24 25 26 25 25
47 47 50 47 45 42 43 45 40 40 36 38 36 33 31 28 27 28 29 32 40 42 29 35 34 31 28 28 31 33 33 34 34 33 32 31 29 33 29 32 30 29 28 25 22 21 20 21 21
48 49 50 50 44 44 40 51 49 40 37 40 36 36 32 31 27 30 31 35 46 41 30 34 35 34 29 31 31 34 34 28 33 38 33 33 31 32 30 30 29 30 28 25 21 21 20 20 19
46 46 51 51 45 43 38 59 42 36 37 37 32 31 31 30 30 32 34 38 37 35 28 33 33 36 34 34 35 36 27 29 34 37 34 33 32 31 31 29 28 28 27 24 23 21 18 16 16
42 50 54 46 41 42 42 58 44 35 36 40 39 38 33 31 32 33 35 36 28 31 28 29 33 35 35 36 33 27 31 31 33 33 33 34 32 32 31 27 27 26 25 24 25 22 20 17 17
53 50 47 49 42 39 46 52 44 39 37 39 38 35 35 34 34 35 35 31 31 28 27 29 30 32 29 27 30 30 31 30 32 31 32 32 32 32 29 26 27 25 23 26 24 22 20 19 18
48 38 43 45 41 37 44 48 43 38 39 39 39 38 38 39 35 35 31 33 27 27 25 26 24 23 26 29 30 29 28 27 29 30 30 31 31 29 26 27 26 22 32 24 24 24 20 16 16
48 45 50 43 38 35 41 44 43 42 41 40 40 40 41 37 36 31 25 31 27 26 23 21 24 25 28 30 25 26 23 25 26 27 31 31 28 25 26 26 23 23 21 17 12 9 11 13 15
48 48 46 44 35 33 36 44 47 42 40 40 40 41 40 40 34 28 21 27 20 18 19 21 23 25 27 25 20 18 19 21 23 27 30 28 22 24 24 25 21 18 14 10 10 11 12 12 13
50 44 40 37 33 35 31 35 46 39 38 38 38 36 34 32 27 23 25 21 16 17 18 20 17 18 18 13 13 13 15 18 24 24 22 25 25 23 22 16 14 10 9 9 8 8 9 11 11
58 36 36 34 33 34 40 36 41 33 37 34 32 30 30 30 26 20 29 21 17 18 15 13 14 14 13 12 11 12 15 20 22 21 22 20 17 15 15 13 8 7 7 7 7 7 9 10 12
42 37 35 32 32 28 41 35 45 43 38 36 31 28 27 21 19 25 23 21 18 16 12 12 12 13 13 11 11 15 16 20 17 16 17 14 15 12 10 7 6 5 5 6 5 7 11 11 10
36 41 25 25 23 24 28 33 44 34 30 26 23 23 17 21 27 23 18 20 16 14 11 10 10 12 11 11 14 15 16 13 12 13 14 13 10 8 5 5 5 2 2 3 8 10 7 8 9
51 46 28 33 15 21 34 35 33 17 12 12 17 12 15 21 23 16 15 14 14 12 9 8 10 11 12 12 13 12 10 10 10 11 11 10 5 4 5 3 2 2 5 9 8 4 3 5 8
56 48 57 34 32 25 24 26 24 24 21 16 14 20 16 17 21 17 14 15 14 10 7 8 10 11 10 10 10 8 7 8 9 10 10 5 4 4 3 4 6 4 5 6 4 4 3 8 8
45 52 39 41 27 22 17 14 14 6 7 16 16 22 22 21 18 15 15 18 14 8 7 9 11 8 8 9 7 7 6 7 9 9 7 4 2 1 5 6 7 5 4 3 3 3 4 7 5
45 46 50 41 33 16 13 17 14 14 9 11 16 22 25 23 18 16 18 18 12 9 8 10 8 6 8 6 5 6 7 7 10 7 5 3 2 4 6 6 7 5 4 4 4 3 2 1 4
46 46 48 35 36 33 16 9 3 10 10 13 16 21 23 20 20 15 18 16 11 9 8 9 5 7 6 4 5 4 5 6 6 4 3 3 4 7 6 5 5 5 5 4 4 3 3 4 3

GFSSGP_700_spd_030.txt.gz
Wind_Speed
6 7 7 7 2 10 18 22 8 2 8 6 2 2 8 7 8 4 11 6 15 13 13 13 12 13 15 17 13 11 10 11 12 13 15 17 18 19 20 19 19 18 17 17 18 18 19 20 21
9 9 8 8 12 19 22 12 13 7 8 1 3 5 7 3 2 8 1 7 17 15 14 12 12 12 14 15 12 9 9 10 11 13 14 16 18 19 19 20 20 19 19 18 19 20 19 21 22
8 11 7 6 15 25 19 9 13 16 14 7 4 3 6 3 4 0 10 15 18 16 18 12 12 13 13 13 11 8 8 9 10 11 12 14 16 18 21 22 24 23 21 20 19 20 21 22 22
9 10 9 16 20 24 18 8 6 9 10 6 4 6 2 13 5 8 11 15 19 16 18 17 14 13 13 10 8 7 6 7 9 10 11 13 16 18 20 22 25 25 21 21 20 19 19 20 21
12 9 15 18 21 20 17 17 4 8 6 8 6 2 4 8 13 13 16 11 15 20 18 17 17 15 14 10 7 8 7 7 10 10 12 15 17 19 20 21 25 26 22 18 18 18 21 21 19
14 11 15 22 22 20 18 16 17 15 13 13 13 12 5 6 5 6 14 13 15 14 24 18 19 18 16 15 13 13 11 11 12 13 13 16 19 22 24 23 24 28 24 21 19 19 19 20 22
18 15 21 21 23 22 17 12 15 16 16 14 5 9 2 7 9 13 18 15 14 16 24 19 19 20 21 20 18 19 17 16 16 16 16 17 19 22 25 24 24 26 26 23 22 22 21 20 21
19 19 25 26 27 25 20 17 17 14 16 11 14 10 11 10 15 14 9 10 20 21 20 23 24 24 25 21 21 22 23 22 20 19 19 20 20 22 25 25 25 26 25 24 22 22 22 22 20
18 25 30 26 25 24 20 20 19 18 14 14 6 9 12 17 21 20 15 14 13 17 29 32 31 23 25 24 22 23 25 28 27 24 22 23 24 25 25 28 27 28 29 24 22 21 19 21 20
27 32 34 25 24 25 22 22 20 18 18 19 18 19 20 18 15 22 16 17 19 17 20 33 32 40 35 28 25 24 26 29 29 27 26 26 26 27 27 32 31 31 29 25 25 22 20 18 19
30 41 30 29 26 26 26 28 23 29 28 26 21 24 23 25 27 29 26 23 23 20 22 27 35 40 40 31 26 25 26 30 29 28 28 27 27 29 30 29 30 33 33 27 26 23 21 21 20
35 39 36 34 32 33 32 32 35 34 36 32 32 32 29 29 28 26 25 24 24 24 26 29 34 39 39 36 31 27 25 28 31 30 29 30 32 31 29 27 28 33 33 28 29 25 24 22 23
42 38 35 36 36 38 37 39 41 42 40 37 36 35 35 35 34 29 24 25 25 28 31 34 33 36 39 36 33 31 29 30 33 31 25 30 36 34 31 29 29 30 29 28 28 25 23 23 22
42 40 40 39 41 43 44 46 43 44 40 38 37 39 38 36 35 31 28 28 31 31 37 40 36 38 42 43 32 32 31 32 33 30 24 29 34 34 32 30 29 30 28 27 25 23 23 23 23
40 46 48 51 48 49 45 53 49 42 40 41 42 41 38 37 35 36 31 28 32 33 40 42 37 37 44 42 32 33 32 33 36 30 29 36 32 29 31 30 31 30 30 26 24 23 20 22 22
42 45 55 54 50 55 46 58 52 41 37 38 37 37 39 37 30 27 33 33 33 37 44 39 33 35 32 31 31 35 35 35 34 32 37 35 32 29 30 30 29 28 28 26 24 23 21 22 21
44 46 51 55 51 48 44 48 50 44 41 42 40 36 37 37 36 36 30 32 32 38 39 40 31 32 27 29 31 35 37 35 33 37 34 34 32 30 30 29 28 26 26 25 24 21 26 22 25
44 47 55 50 41 38 42 45 47 42 39 43 40 42 35 38 39 38 39 34 30 40 39 35 25 27 27 29 33 34 33 33 35 33 31 32 32 31 31 31 25 24 24 24 24 27 27 25 23
40 50 51 45 37 36 38 43 47 43 41 42 41 40 41 39 37 37 36 40 32 39 37 30 27 28 29 30 29 30 31 31 28 27 27 28 30 31 31 26 24 24 24 25 22 21 24 24 21
45 48 48 45 36 35 37 40 42 42 41 40 38 40 35 36 38 33 34 33 40 34 35 28 26 26 27 27 27 27 29 24 20 23 25 25 28 27 24 25 24 23 23 19 19 16 11 10 13
47 50 45 46 35 39 38 41 42 43 42 39 37 37 37 38 40 44 37 33 37 35 29 25 24 21 21 20 21 24 21 18 16 19 24 26 25 23 25 22 19 17 15 13 11 11 10 9 11
48 45 38 38 34 40 32 30 46 43 40 38 35 34 35 34 33 31 31 33 30 30 25 17 15 17 15 15 15 14 12 13 17 19 22 25 24 22 17 15 14 13 10 9 10 9 8 10 10
57 33 36 36 40 36 36 31 59 30 33 28 29 32 32 31 28 27 24 31 30 28 22 16 16 14 13 14 11 11 10 14 17 18 22 19 17 18 16 12 9 8 8 8 7 8 8 10 10
36 38 36 37 37 26 43 37 51 37 35 32 31 33 32 28 25 22 30 31 29 27 20 16 13 12 12 12 10 9 11 15 17 17 16 15 16 16 11 6 7 7 6 6 6 7 7 8 8
42 38 25 24 23 23 34 38 45 39 31 29 31 29 23 20 19 27 25 27 27 23 17 14 12 11 12 10 8 12 11 14 14 14 12 13 14 9 5 6 5 3 5 1 4 5 6 8 9
46 47 27 24 17 21 38 34 45 44 30 21 15 16 11 15 28 25 23 25 24 19 15 12 11 11 10 8 10 10 11 12 10 9 10 11 8 4 6 5 1 0 3 8 7 4 5 8 9
38 52 48 37 34 24 29 33 41 29 25 23 13 12 13 19 20 22 22 17 16 16 12 10 10 10 9 9 9 9 10 10 7 8 9 8 4 4 3 2 3 4 5 3 2 4 3 3 5
43 35 46 41 25 22 27 35 27 18 25 19 19 17 21 18 17 22 18 14 16 14 10 11 10 7 7 7 8 9 9 7 4 7 6 5 3 2 2 2 4 3 1 1 2 3 3 4 7
41 45 45 40 33 16 14 20 15 17 14 6 16 19 24 18 18 19 16 15 16 13 11 10 7 6 6 7 8 9 4 4 4 4 3 2 2 2 4 4 3 3 1 2 2 2 4 4 3
46 40 37 32 34 35 27 28 5 10 10 9 14 22 25 20 19 15 13 15 15 13 10 8 6 5 5 6 6 5 2 4 3 3 1 1 3 5 7 5 3 2 3 1 2 1 2 4 5

GFSSGP_700_spd_033.txt.gz
Wind_Speed
8 9 9 7 7 8 13 6 15 8 5 8 2 3 8 3 5 1 5 10 12 12 15 17 14 11 11 12 12 9 9 10 11 13 14 15 17 19 20 21 21 20 19 17 15 16 17 19 20
10 11 11 11 8 11 14 8 10 4 13 10 9 7 3 4 3 6 7 3 8 9 13 15 15 12 11 11 10 8 7 8 9 11 12 13 15 17 20 21 23 25 24 20 18 16 16 18 20
10 12 14 9 12 19 10 11 10 12 9 9 10 3 12 9 2 7 6 7 6 7 12 14 16 14 13 12 10 8 8 8 9 9 10 11 13 15 18 19 20 24 28 25 21 17 16 16 18
14 14 14 16 16 13 14 14 18 23 8 10 11 6 8 8 13 13 12 10 9 8 10 13 15 15 14 14 12 10 10 10 10 9 9 11 13 15 18 19 20 23 27 26 23 20 17 14 15
17 16 15 15 18 11 8 14 20 10 11 10 2 3 5 11 10 11 14 14 14 10 10 13 14 17 16 15 14 13 12 12 11 11 12 13 14 15 17 20 20 22 24 26 21 19 17 17 19
18 16 12 19 17 11 9 13 18 12 11 10 17 16 16 10 9 9 12 21 20 21 17 12 20 17 18 19 19 17 15 14 15 15 14 15 16 17 19 20 20 22 23 27 21 20 19 19 17
21 16 22 18 15 19 19 15 13 18 7 6 8 6 7 5 4 10 18 12 20 22 24 16 16 22 17 19 23 23 20 18 18 21 18 19 19 20 20 20 21 22 26 27 22 19 20 20 20
19 21 25 22 20 26 13 13 17 13 12 6 8 11 12 12 12 16 8 9 10 23 24 27 24 21 23 19 26 28 24 22 22 22 20 22 22 22 23 22 22 22 26 28 24 20 20 19 19
20 23 30 27 23 20 14 15 13 18 21 17 5 4 9 7 17 19 5 9 11 20 29 31 26 25 29 24 29 29 29 24 24 25 24 23 24 24 25 25 24 24 25 28 27 22 20 20 19
28 35 37 26 27 21 18 20 20 20 25 17 19 13 17 15 20 18 20 13 11 16 29 34 29 25 26 29 31 35 31 28 27 27 26 25 23 25 26 26 26 28 26 28 29 22 21 20 19
31 46 39 37 31 21 24 29 22 27 19 25 23 28 21 21 24 28 31 33 26 25 23 29 31 26 27 35 35 38 33 30 27 28 27 26 23 26 26 27 28 31 29 29 28 25 21 19 18
37 39 34 35 30 26 29 30 34 30 30 27 29 30 29 26 22 28 31 31 32 35 25 30 33 35 37 40 41 36 34 30 29 28 29 27 25 25 26 25 29 29 30 28 28 25 23 20 18
44 40 34 33 32 31 28 34 38 38 34 33 37 36 37 40 39 35 40 39 37 26 23 30 36 40 39 45 46 36 35 31 28 28 31 29 25 27 27 24 26 29 31 30 28 25 23 22 20
43 36 38 36 36 34 37 41 41 42 34 40 42 43 42 39 36 36 33 37 34 29 29 33 36 39 42 48 39 35 37 37 31 30 31 30 28 31 26 24 25 28 30 30 27 25 23 21 19
41 41 42 46 43 42 33 47 51 45 44 48 44 41 39 38 42 42 37 40 36 32 34 35 38 41 42 38 35 37 40 40 36 34 34 32 33 32 26 27 28 29 29 28 23 23 22 22 20
38 38 46 52 46 45 37 70 52 47 47 48 49 47 40 40 39 34 32 36 32 36 36 39 44 39 41 33 31 36 38 36 36 37 38 35 33 30 25 27 29 31 31 27 24 23 22 21 19
35 44 47 52 51 47 39 56 53 52 48 45 45 40 43 43 42 33 37 32 33 36 39 42 44 37 38 27 25 27 29 33 37 41 41 34 36 28 26 28 29 32 31 25 24 23 23 21 20
33 40 56 60 38 32 41 50 53 44 39 46 39 35 38 41 40 38 34 39 36 42 42 40 38 36 36 27 24 27 29 33 39 40 39 37 33 25 26 28 30 32 27 24 23 22 23 23 24
34 39 41 41 39 38 46 45 48 47 37 39 42 40 38 37 41 38 38 33 30 40 38 32 31 32 35 30 26 28 30 33 36 38 33 29 23 23 26 28 28 25 24 24 23 24 22 21 18
44 43 43 35 32 33 43 43 44 45 43 38 39 38 36 35 35 33 31 31 37 29 28 30 32 34 34 30 27 27 26 29 29 27 20 17 20 23 25 23 24 23 21 20 17 18 17 12 11
42 51 46 43 28 35 37 37 43 44 43 42 37 38 35 32 34 36 39 40 40 41 33 30 32 29 29 25 21 21 23 25 21 16 13 16 20 20 21 21 20 19 17 16 16 13 10 9 8
43 36 37 37 29 41 28 28 46 47 48 43 42 40 37 37 38 37 31 32 29 24 25 28 25 25 20 19 17 18 19 16 13 14 16 18 19 18 17 18 18 17 16 12 11 10 9 9 8
47 30 32 32 35 37 41 28 60 37 37 36 29 27 27 32 29 32 29 26 26 26 24 25 22 22 20 15 15 15 14 13 13 15 17 17 15 16 18 16 14 12 10 9 8 8 8 8 8
33 31 33 32 34 21 42 32 65 44 46 39 36 32 32 30 30 33 32 24 25 22 27 22 22 21 14 13 13 13 12 11 14 16 14 13 13 15 15 11 10 9 7 7 7 7 8 7 6
26 33 15 14 15 18 30 27 46 14 26 31 32 25 25 29 30 25 27 25 24 23 22 20 20 14 13 11 13 10 11 13 14 13 12 11 13 13 9 8 7 5 5 3 3 4 4 6 8
28 27 22 14 14 18 28 18 23 46 39 37 31 24 21 22 19 23 20 20 20 19 19 19 15 12 11 11 11 11 12 14 11 11 10 10 11 9 6 4 3 3 2 6 5 3 3 4 7
37 39 33 35 34 11 21 31 35 34 35 31 25 26 20 14 19 19 20 16 17 18 18 15 12 10 12 11 11 11 12 9 9 10 8 8 7 5 3 2 2 3 5 4 2 3 3 2 4
27 36 19 33 16 16 12 26 26 36 31 25 24 25 19 18 16 17 19 17 16 14 15 12 10 10 11 10 10 10 9 7 8 8 6 6 4 2 3 3 3 3 2 2 1 2 1 2 4
18 36 34 27 30 13 8 19 31 35 32 22 24 29 24 22 19 17 18 16 13 14 13 10 9 10 9 9 9 6 5 6 7 5 3 5 2 2 4 5 3 2 2 2 3 3 4 3 2
26 27 37 26 15 33 24 26 29 16 16 24 20 32 25 24 19 16 18 16 14 12 11 9 9 9 8 8 5 4 3 5 4 2 3 2 3 4 5 6 4 0 1 1 3 2 2 3 3

GFSSGP_700_spd_036.txt.gz
Wind_Speed
15 13 13 13 9 10 13 4 10 5 8 8 8 5 2 4 4 1 2 8 10 7 11 12 10 12 12 11 10 9 10 8 9 12 13 16 19 19 18 19 20 22 25 23 17 14 15 18 20
16 15 16 15 9 14 6 5 7 5 5 3 7 9 8 13 11 7 9 11 9 5 9 11 9 11 12 12 11 11 9 6 8 10 11 14 15 16 17 18 20 23 28 27 24 17 14 15 17
15 16 16 11 14 19 4 6 2 9 8 10 6 8 7 9 10 10 10 7 13 6 8 9 12 12 12 14 13 13 10 8 8 9 9 11 14 15 16 18 19 24 27 30 26 22 16 13 15
17 18 17 18 18 17 9 2 13 13 13 18 13 10 15 18 11 12 9 10 8 7 8 13 11 14 12 13 16 15 14 11 9 10 10 11 12 14 15 16 18 21 27 31 30 25 20 15 12
18 19 19 22 24 12 11 9 21 9 15 18 12 3 12 9 10 8 9 6 11 14 15 13 10 15 15 14 14 17 20 16 14 12 12 11 12 14 16 16 16 19 22 27 31 28 22 21 16
20 21 16 28 22 16 18 4 12 4 14 10 6 15 15 10 12 11 10 14 16 15 14 11 13 17 15 13 14 16 23 21 19 17 17 15 15 15 16 16 17 19 21 22 29 30 22 20 20
23 24 26 24 22 21 19 5 8 11 13 7 7 20 22 17 12 10 13 13 15 8 13 11 15 16 19 19 18 16 22 22 23 22 20 19 18 18 17 17 16 18 20 22 25 29 25 20 20
24 26 28 26 24 21 11 15 2 9 8 2 7 8 12 13 9 12 9 8 11 13 16 18 20 19 16 23 22 20 23 24 24 26 24 23 22 20 20 20 18 18 19 21 24 27 27 22 20
24 28 33 29 24 20 8 20 16 11 6 11 3 9 1 5 8 12 9 12 11 11 19 21 26 24 20 23 23 22 24 27 26 25 28 27 25 23 22 22 21 18 18 20 24 26 25 22 20
31 36 36 26 28 29 20 15 30 29 19 11 11 11 17 19 17 10 17 20 16 21 28 29 27 27 24 24 24 21 26 31 31 28 27 30 28 27 26 25 23 21 19 20 24 26 27 23 21
35 44 38 34 31 31 31 24 26 36 28 22 16 28 21 24 24 25 31 27 28 28 31 32 34 31 26 24 26 26 30 34 35 29 28 28 30 31 29 28 24 24 22 22 23 26 27 23 21
40 42 39 36 34 35 34 28 34 35 36 28 26 22 23 25 23 25 29 30 35 41 41 38 35 35 33 31 33 31 37 41 35 30 29 28 30 31 32 31 28 24 24 24 24 26 27 25 21
49 45 39 35 31 32 33 38 41 43 35 34 31 29 29 29 34 34 34 32 38 41 36 36 32 35 34 36 36 36 39 41 31 30 29 30 31 31 31 33 30 24 25 26 27 27 26 24 21
49 43 45 38 37 35 34 37 38 40 33 38 35 35 34 33 38 38 34 40 39 35 34 39 32 35 35 39 36 38 41 35 29 29 31 35 36 33 32 31 29 26 25 28 29 29 28 23 21
46 47 44 49 44 39 31 45 48 42 37 37 37 39 41 43 45 44 36 36 36 37 38 40 37 35 38 42 42 40 38 28 27 28 33 37 36 37 32 30 31 27 25 30 30 30 29 25 22
29 38 51 57 47 43 32 65 51 43 39 39 45 47 48 50 51 51 43 38 37 37 34 35 37 37 40 43 41 40 34 25 24 29 33 35 38 36 31 28 29 27 29 31 29 29 27 25 23
37 44 50 58 47 41 41 73 51 48 47 49 49 52 51 47 40 34 37 38 38 35 35 35 34 38 40 41 41 36 30 25 23 27 31 34 35 33 28 29 29 29 30 30 29 29 27 25 24
38 48 46 39 40 35 46 66 56 52 50 53 56 50 44 38 36 29 28 32 36 37 35 36 34 39 38 34 37 32 30 29 28 29 32 34 31 31 28 30 26 30 30 30 27 26 26 27 21
26 30 38 29 23 34 48 53 49 46 47 44 42 40 40 38 36 37 33 34 33 35 36 36 28 31 29 31 33 31 31 30 31 31 32 30 32 26 25 22 26 28 28 26 26 27 22 22 20
43 41 36 28 23 23 29 37 39 39 42 40 38 39 39 40 35 33 28 34 32 33 31 34 32 33 29 32 30 31 30 28 28 28 31 28 19 19 20 22 24 25 24 23 22 21 19 18 19
39 41 44 33 26 32 27 40 40 46 43 43 44 38 37 36 37 31 29 28 30 30 29 31 33 33 29 25 27 29 25 26 26 24 20 16 16 17 20 21 21 19 21 20 19 18 16 14 13
37 35 24 27 31 33 32 32 42 50 50 49 47 45 43 44 44 38 31 32 33 31 30 26 22 21 22 23 24 22 21 20 20 17 15 16 15 17 18 17 18 19 19 17 15 13 12 11 11
34 28 24 24 28 29 35 21 73 45 53 51 50 47 45 42 32 25 30 31 32 32 27 24 22 21 20 21 20 19 18 19 16 14 16 15 15 15 15 18 19 18 15 14 13 12 10 9 9
16 17 26 29 30 17 37 24 64 44 52 48 42 35 31 30 30 25 26 29 29 29 23 22 21 20 20 20 17 18 16 13 14 17 13 13 13 14 15 16 14 13 13 11 11 10 9 9 10
20 15 5 8 10 17 20 24 52 4 4 14 20 22 19 18 22 24 27 23 25 25 19 22 20 19 19 16 16 14 12 15 17 12 12 11 12 12 13 11 10 9 9 9 6 4 5 6 7
24 15 13 9 4 5 30 18 23 29 33 42 38 31 24 17 21 24 24 20 21 20 18 15 17 18 16 15 13 12 15 16 12 12 11 11 12 12 9 8 8 6 5 4 2 3 3 4 7
15 27 26 17 31 5 18 41 48 33 29 27 31 29 26 25 21 18 14 13 11 14 14 15 16 15 14 13 11 14 14 12 12 12 11 11 10 8 7 8 5 3 4 3 4 4 5 6 9
15 14 10 20 6 10 10 19 21 20 35 25 19 20 22 22 21 12 12 14 14 13 15 18 15 13 12 11 12 12 12 12 12 12 11 10 8 6 7 6 6 4 3 5 4 5 6 7 8
18 16 18 17 11 8 4 16 32 18 21 21 23 24 26 24 21 11 12 15 14 14 14 15 14 11 10 11 10 11 12 12 13 10 9 6 6 5 7 7 6 3 3 2 2 3 3 4 5
23 23 15 7 16 18 22 42 14 28 24 21 18 23 27 26 20 14 15 15 15 13 15 15 12 9 10 10 11 10 10 10 8 8 6 5 6 7 7 6 4 3 3 2 3 3 4 7 5

GFSSGP_700_spd_042.txt.gz
Wind_Speed
17 18 14 14 9 12 15 8 6 8 9 7 5 10 14 13 14 6 11 8 1 8 12 14 15 10 13 15 14 16 12 12 11 11 13 14 17 19 19 19 20 20 23 26 28 30 24 12 11
18 19 17 17 13 16 16 11 8 12 6 7 7 10 12 13 17 7 12 3 4 8 10 12 12 8 10 13 15 13 14 13 12 11 11 12 13 14 16 16 17 18 19 22 26 28 30 27 14
18 19 19 15 22 24 10 11 13 1 5 7 4 2 8 7 11 9 5 2 3 6 7 11 8 6 7 10 10 8 11 12 12 13 11 11 11 10 12 15 15 16 17 19 21 24 27 29 28
17 20 22 23 22 23 16 14 5 4 8 4 4 6 13 12 8 8 5 1 3 6 8 9 5 6 8 6 7 7 7 10 10 13 15 14 13 12 12 13 15 16 16 17 18 19 23 26 28
19 22 26 27 31 22 21 14 5 2 8 5 2 4 5 11 7 6 4 1 2 6 11 5 9 8 8 10 8 8 7 9 10 13 16 18 17 17 17 16 15 16 17 19 18 18 19 23 25
21 25 21 35 28 28 22 18 11 2 11 7 2 5 4 10 5 3 2 1 6 8 7 5 9 13 16 12 13 12 11 9 12 12 15 18 21 21 20 21 20 19 18 18 20 19 18 19 23
25 28 33 31 28 31 23 15 11 1 12 9 3 3 1 7 8 7 6 4 6 7 6 6 8 11 12 13 19 19 15 14 14 16 15 16 20 23 26 25 24 23 21 21 20 21 20 18 21
26 29 35 34 32 30 21 17 15 10 14 8 5 6 1 5 12 11 9 7 10 7 11 12 12 12 13 15 14 19 20 19 18 17 18 17 18 22 24 27 27 27 24 25 24 22 22 21 21
29 34 39 37 33 28 18 16 21 16 12 6 6 6 8 3 2 5 11 14 14 14 13 13 14 15 16 19 18 19 22 21 21 20 19 20 22 22 26 27 28 29 29 27 27 26 23 24 22
36 41 41 33 29 26 23 20 22 25 17 14 9 9 5 11 4 8 8 11 18 20 16 14 17 22 23 24 20 19 21 20 19 20 21 22 22 27 28 29 29 29 30 30 29 29 26 27 25
43 48 35 30 30 28 26 26 24 31 32 27 20 19 16 13 15 16 14 15 15 20 21 20 21 20 25 25 24 22 22 21 22 23 21 24 27 29 29 27 27 27 29 30 30 30 29 28 26
47 48 42 35 32 32 31 28 35 34 32 33 29 33 28 26 23 25 25 18 15 16 20 19 21 24 27 25 25 26 24 22 26 27 22 25 27 31 29 29 26 26 28 29 31 31 29 28 28
51 51 47 42 38 37 38 36 35 40 32 35 38 40 38 40 39 35 27 23 22 20 20 22 24 24 25 27 29 28 27 28 24 30 24 26 27 28 31 29 28 27 28 27 29 30 29 29 28
53 52 49 46 45 42 42 44 42 48 42 48 43 44 41 48 46 40 34 35 31 28 28 28 32 27 27 27 29 29 32 30 29 24 23 25 29 30 30 30 29 27 28 21 28 32 28 29 30
53 50 46 50 50 47 42 53 59 47 42 44 41 43 45 46 43 42 41 40 37 35 35 36 36 34 31 30 29 28 27 31 33 26 22 25 28 29 27 28 28 27 29 20 32 30 28 30 30
42 48 52 54 47 46 41 64 55 45 44 43 42 41 44 50 52 46 46 45 39 40 41 44 34 31 35 31 31 30 29 30 33 26 22 25 25 26 26 25 26 27 28 27 26 27 28 30 29
38 41 48 49 49 38 42 65 49 40 42 48 50 47 47 49 47 46 45 43 42 45 47 33 26 30 30 33 33 32 28 29 34 28 23 24 27 26 25 24 26 26 29 26 25 28 28 28 28
38 44 35 36 35 28 39 62 50 46 44 51 52 55 54 53 49 46 49 48 46 44 29 26 28 27 28 30 30 32 30 32 33 27 25 27 26 25 25 24 26 28 27 25 27 26 26 27 27
23 27 20 29 24 19 34 47 45 41 44 47 49 52 56 59 57 54 51 49 49 32 27 30 29 27 28 31 31 29 28 31 28 26 28 29 26 24 23 25 26 25 23 23 23 24 26 25 24
35 22 18 16 21 23 30 40 43 41 48 50 49 48 48 47 47 48 50 47 32 26 24 20 21 24 24 24 24 24 27 27 26 31 31 28 24 22 22 24 23 22 22 22 23 23 23 23 22
26 34 33 25 17 24 26 41 45 47 48 49 49 49 48 45 40 36 33 30 29 27 22 23 19 21 21 23 22 20 25 29 30 30 27 24 21 20 21 19 20 21 21 21 20 21 21 20 18
23 19 12 13 15 21 27 20 39 46 50 51 52 47 45 44 39 29 27 27 29 29 29 26 27 25 24 23 21 19 20 24 27 29 21 17 17 17 16 20 22 20 19 18 18 18 17 15 14
32 32 27 21 18 19 25 16 54 37 46 50 47 45 43 41 35 32 30 29 29 31 27 24 25 27 24 25 22 20 22 23 23 19 15 15 15 16 18 20 19 17 15 14 14 14 13 13 12
7 13 16 17 20 15 24 18 59 44 50 45 34 35 35 31 27 29 30 34 35 31 29 22 19 22 22 26 22 22 21 21 17 14 15 15 17 18 17 18 16 15 13 12 12 12 11 12 11
15 9 4 4 5 11 19 20 51 6 6 5 4 6 1 8 18 23 24 22 20 22 27 25 22 24 21 20 20 20 19 17 15 16 16 17 17 16 16 15 13 12 11 10 11 8 7 7 9
16 18 6 6 5 5 19 20 29 28 43 29 22 14 15 4 8 13 16 18 21 24 28 29 21 19 17 17 19 18 17 16 16 16 17 16 16 16 14 12 11 10 9 9 8 6 5 5 5
20 21 25 4 6 3 10 40 44 14 20 20 14 10 11 14 11 10 20 21 20 19 21 23 22 17 16 16 16 16 14 14 16 16 15 15 14 12 12 10 10 9 8 7 8 6 6 5 10
13 19 18 10 4 5 7 17 20 7 5 22 20 23 18 17 14 11 22 19 18 16 14 16 16 15 15 15 15 14 14 16 16 14 14 12 11 11 10 9 8 7 7 8 9 8 6 7 8
16 18 12 16 21 4 2 5 4 0 10 11 12 12 11 12 16 14 18 16 14 14 12 14 14 14 13 14 13 13 15 15 13 13 10 10 10 10 9 7 6 7 8 9 8 6 5 4 5
11 14 13 18 9 27 13 13 9 5 6 7 9 12 11 10 12 16 15 15 15 14 13 12 12 13 13 13 12 14 15 12 12 9 9 10 8 8 6 6 7 7 8 9 7 6 4 6 6

GFSSGP_700_spd_045.txt.gz
Wind_Speed
16 17 13 12 9 11 15 10 8 8 7 6 7 7 7 14 12 8 9 13 8 9 11 11 13 16 16 15 16 16 13 9 7 8 9 10 11 13 15 16 17 18 19 20 22 26 25 23 22
17 18 18 14 14 14 14 15 10 10 9 10 7 11 12 14 10 4 15 11 7 8 9 9 9 13 13 14 13 13 12 11 9 9 8 9 10 11 11 13 15 16 17 18 19 21 24 27 24
17 18 18 15 22 21 10 13 11 8 6 11 9 9 12 12 12 9 11 8 6 7 8 8 7 11 12 11 10 9 10 10 9 10 11 12 13 13 13 13 14 15 16 16 17 17 19 22 25
16 19 20 23 24 27 18 14 18 4 6 11 10 7 11 13 12 14 12 9 7 6 8 6 7 9 13 9 7 6 5 6 8 9 11 13 16 18 18 18 18 17 17 17 17 17 17 18 20
16 20 24 26 32 27 23 16 15 4 6 13 10 6 6 11 16 18 12 6 4 5 6 7 5 9 12 10 10 6 5 5 7 7 8 10 13 16 18 20 21 21 20 19 20 19 19 18 18
19 22 20 29 32 29 24 20 18 6 8 13 12 6 7 10 14 17 11 8 4 3 5 3 3 5 5 5 9 8 8 7 8 9 10 10 11 14 19 22 21 21 22 21 21 21 20 20 19
21 25 31 31 29 30 26 20 19 9 10 14 13 9 8 9 13 14 6 9 5 1 4 1 1 4 3 7 8 7 9 11 12 12 12 15 16 16 19 24 25 24 23 23 22 22 21 22 20
23 27 28 35 31 32 25 21 20 14 11 17 14 11 12 16 14 13 9 11 5 5 4 4 5 6 7 8 11 11 11 15 17 16 17 17 19 21 22 23 27 27 27 26 25 24 23 23 22
28 32 29 35 33 31 22 21 19 20 17 13 14 14 13 11 17 17 9 12 10 7 9 8 7 8 13 11 17 16 15 15 18 20 20 21 20 21 23 26 28 29 29 28 27 26 25 24 23
37 40 40 37 32 29 25 20 19 25 25 18 12 14 16 16 16 12 10 9 11 9 10 15 13 15 17 16 17 18 20 19 17 18 19 22 22 22 27 29 29 31 29 29 28 27 26 27 26
44 50 40 38 30 27 28 29 27 27 33 25 19 16 13 13 18 19 20 18 15 13 15 20 20 19 21 20 19 21 21 22 21 19 18 22 23 25 28 28 30 31 30 29 29 28 27 28 27
48 50 46 41 37 33 31 29 35 35 36 34 29 27 25 23 20 20 22 23 24 21 18 19 24 21 19 21 24 23 25 26 25 23 21 24 21 23 29 31 30 33 31 29 31 29 26 30 30
51 51 49 46 42 37 36 37 37 43 38 35 35 33 32 27 27 30 33 31 27 25 21 19 20 20 22 24 23 22 22 24 25 28 26 24 23 24 30 31 30 32 33 27 38 25 23 32 30
49 48 52 49 47 43 40 42 43 44 39 38 34 31 30 33 35 37 38 38 33 29 26 26 25 25 28 30 28 26 25 24 24 27 29 25 23 24 29 29 27 30 31 33 29 26 29 30 27
50 47 38 44 51 48 42 50 59 46 45 42 39 37 41 42 43 42 40 43 35 34 34 31 28 29 32 33 33 32 27 23 24 26 29 26 22 24 26 28 31 28 27 28 26 26 30 29 25
37 39 43 51 50 51 43 59 59 50 54 54 51 48 48 49 41 40 40 42 40 38 39 35 35 36 35 32 33 33 30 27 28 28 28 27 22 23 27 30 30 26 25 26 27 26 28 26 25
28 39 41 42 45 45 30 64 54 57 58 59 53 49 48 49 43 40 41 41 45 47 42 37 34 32 34 34 34 29 31 27 28 27 29 25 23 26 29 29 29 26 23 26 26 24 24 25 26
32 37 38 34 26 38 41 64 50 41 49 50 49 51 51 51 49 46 48 46 45 44 43 42 39 29 31 31 28 27 25 25 28 29 30 25 25 29 30 29 29 24 24 28 26 22 24 25 24
24 21 29 28 22 29 38 50 47 48 52 55 54 51 51 53 54 54 52 53 53 49 43 40 33 29 29 28 28 26 28 26 25 26 26 26 28 30 29 31 28 25 28 23 19 17 20 21 20
34 24 14 17 22 29 26 33 36 44 54 55 55 54 53 52 50 48 44 44 47 51 50 42 32 32 28 26 27 23 22 24 24 24 26 27 28 29 29 30 29 24 20 16 15 16 20 20 22
27 34 31 15 16 22 20 34 43 51 51 49 49 50 49 49 47 44 40 36 33 36 37 33 33 29 25 20 20 21 23 23 20 24 26 27 29 31 29 28 24 19 16 16 17 19 19 21 19
28 19 22 30 21 23 15 16 28 30 41 53 53 51 49 47 48 42 37 32 27 27 28 32 31 30 25 21 21 22 22 21 21 23 24 27 30 26 25 22 18 18 17 19 17 19 18 17 14
28 21 17 15 17 18 25 18 39 24 36 47 49 44 43 41 40 38 34 33 30 26 30 33 31 25 27 29 25 23 22 22 21 21 24 24 21 21 19 18 18 19 17 17 17 15 14 13 12
15 19 28 25 22 20 25 19 46 34 38 44 39 31 22 28 34 35 29 29 28 28 32 32 25 24 22 21 24 23 23 21 19 21 21 19 19 17 18 17 18 15 15 15 14 13 12 12 9
15 15 12 13 14 18 17 19 43 7 3 6 9 9 8 6 11 16 27 29 29 30 29 28 24 23 20 21 21 21 22 19 20 20 18 18 17 18 16 15 15 14 14 12 12 11 9 8 7
22 22 11 15 12 16 18 18 21 16 35 17 13 12 12 12 10 9 17 22 23 19 20 25 27 24 20 23 19 19 18 19 20 17 17 17 18 15 14 14 13 14 12 11 10 8 7 6 4
20 20 23 5 1 11 17 26 29 20 12 9 9 12 14 13 17 13 12 15 18 20 20 21 26 26 24 17 17 17 17 19 16 16 16 16 14 13 14 12 12 11 9 8 8 5 7 6 6
25 20 17 14 6 8 11 21 15 2 15 20 19 18 15 14 17 16 12 18 17 17 18 18 21 24 20 17 16 17 17 15 14 15 15 14 13 13 11 10 9 8 8 6 6 6 7 8 9
15 14 17 20 19 4 3 3 10 15 15 9 8 8 10 10 18 15 15 16 18 19 16 15 17 19 17 15 16 16 13 13 13 13 13 13 12 10 8 7 7 8 7 6 6 7 7 8 9
9 7 9 16 26 22 17 8 15 9 10 8 8 5 3 7 14 13 16 19 16 15 15 16 16 15 14 16 15 12 11 12 12 12 12 11 9 7 6 6 8 7 6 5 6 8 7 8 11

GFSSGP_700_spd_048.txt.gz
Wind_Speed
15 13 11 10 7 11 17 14 13 8 9 8 11 9 13 11 18 6 9 18 11 9 11 11 14 16 17 18 18 15 14 15 15 14 13 14 14 13 15 16 16 16 16 17 17 19 22 24 27
15 15 14 9 12 17 17 17 11 13 11 8 10 11 13 11 16 6 8 17 12 8 9 9 11 13 15 17 14 12 10 12 12 12 10 9 10 12 13 13 14 15 15 15 15 16 17 18 21
15 16 11 11 20 23 15 13 14 13 15 8 7 12 12 17 12 10 12 15 10 6 8 8 9 9 14 15 13 8 7 8 9 10 10 10 10 11 11 12 12 13 14 14 14 15 16 16 16
13 16 18 18 21 20 19 7 14 11 9 16 10 7 15 15 16 16 16 15 10 6 5 10 8 10 11 12 9 5 3 3 5 6 7 8 10 11 13 15 16 17 16 15 16 16 16 16 16
14 14 19 22 27 22 18 18 12 10 9 15 13 10 14 18 16 20 18 16 11 6 9 9 6 7 7 8 8 2 2 3 4 5 5 6 8 10 13 16 19 20 21 20 18 18 18 18 17
16 18 20 28 25 22 23 18 16 15 12 13 17 13 11 17 20 24 22 17 12 10 11 6 7 4 3 2 5 4 4 8 8 7 8 9 11 14 15 17 20 21 22 22 23 22 21 21 20
18 18 25 26 23 21 21 17 20 16 14 15 13 16 13 15 24 25 22 17 13 9 11 7 7 4 3 3 4 5 6 9 11 14 14 13 13 16 18 20 20 22 22 23 24 24 24 23 22
22 21 26 28 28 28 16 17 20 17 14 15 17 15 12 20 24 27 19 18 14 10 8 6 9 6 4 6 6 8 9 10 12 16 17 18 19 19 20 21 23 24 25 24 25 25 26 26 24
29 27 30 30 26 22 16 18 18 17 16 14 13 13 19 23 27 28 20 20 17 8 7 7 8 11 9 9 10 10 11 13 17 18 20 21 22 22 24 26 26 27 27 27 26 26 26 26 26
35 33 35 27 22 22 20 19 15 18 19 19 12 21 19 20 26 26 23 17 19 13 12 12 10 10 14 15 14 15 15 16 19 22 22 25 26 27 25 27 29 29 28 29 28 27 27 27 27
36 45 32 30 24 23 24 25 20 21 23 25 18 16 21 24 29 30 20 19 18 17 20 18 19 20 17 20 22 21 18 20 21 22 26 29 30 32 29 30 30 31 32 31 30 28 27 30 27
39 40 39 37 26 29 32 29 32 30 29 24 29 27 27 26 30 30 25 19 20 21 21 22 23 23 26 24 22 24 23 25 19 24 27 31 33 33 30 28 31 32 34 34 33 30 32 34 33
42 42 36 34 32 30 33 37 37 34 33 29 30 36 30 27 25 25 24 24 26 26 25 27 26 27 29 28 27 23 22 25 27 27 28 29 32 33 31 30 32 33 34 34 34 31 34 35 37
36 35 43 38 33 31 37 45 34 44 41 37 36 41 39 35 33 32 32 33 33 33 33 28 29 28 27 28 27 29 29 29 32 31 29 27 31 33 32 30 30 33 34 33 32 35 35 36 34
35 39 36 36 42 42 29 44 54 45 39 43 40 44 43 42 36 33 36 35 34 35 33 33 35 35 32 31 30 31 31 28 33 36 29 28 29 31 32 31 30 31 33 33 34 34 32 32 32
23 32 41 51 38 37 34 48 57 41 37 41 49 47 44 43 37 36 40 39 37 37 38 35 37 39 38 35 33 33 29 32 35 39 33 30 30 32 30 30 32 34 33 32 33 32 30 31 30
32 41 44 44 41 39 30 53 55 49 34 37 42 50 47 48 47 47 44 42 41 40 40 38 38 39 39 36 33 30 31 34 33 31 32 32 29 29 29 31 33 33 32 30 30 30 31 31 28
41 39 43 42 35 36 43 53 45 31 29 42 41 40 38 46 49 49 47 44 43 46 45 41 39 39 40 39 32 32 32 28 27 26 30 30 28 28 29 32 34 32 31 29 29 30 30 29 25
38 38 36 35 34 36 42 53 47 41 41 40 38 45 44 41 47 50 51 52 48 49 48 49 48 44 39 38 32 33 30 28 27 31 27 24 26 27 29 31 31 32 33 29 30 29 24 22 25
33 37 42 30 23 33 41 47 41 39 42 43 43 42 46 58 61 58 54 51 51 52 48 43 44 45 44 39 32 33 29 28 25 24 25 27 25 28 29 30 31 33 32 28 26 19 18 21 20
32 34 37 38 24 27 30 40 39 39 36 38 41 41 48 50 53 52 54 56 51 46 40 37 35 35 34 32 33 32 25 24 24 25 25 23 26 28 31 31 32 32 27 23 18 17 18 17 20
29 32 32 33 34 33 25 29 35 35 38 40 41 40 41 48 48 48 48 47 46 43 40 37 33 31 33 32 32 26 23 23 25 25 26 25 26 29 28 29 27 24 21 18 16 18 18 19 19
31 25 31 29 34 38 41 30 32 29 33 33 31 31 32 42 44 46 45 43 39 38 36 34 32 33 35 30 28 25 25 25 24 24 24 24 26 26 25 23 22 20 19 15 16 17 19 17 16
25 23 27 29 31 28 41 38 35 35 33 28 24 26 24 25 32 35 38 39 34 33 34 34 34 35 34 29 26 31 31 26 24 23 23 24 25 21 21 20 19 18 17 14 14 16 16 15 15
21 24 17 21 25 19 32 30 30 12 5 18 12 13 12 13 14 22 25 29 30 31 30 33 35 33 29 26 27 27 27 25 23 23 24 24 21 19 18 19 18 17 15 14 15 15 15 13 12
29 27 23 20 17 24 40 31 34 28 28 22 13 9 9 9 12 16 18 21 25 28 30 31 28 31 26 28 24 23 23 23 22 23 23 22 18 17 17 16 16 15 14 15 14 14 12 11 10
28 30 30 34 27 20 32 36 34 21 17 9 11 10 10 12 15 17 19 17 19 18 18 21 25 29 30 28 21 22 22 21 22 21 20 16 16 17 15 15 14 14 14 13 13 12 10 10 10
23 23 21 27 15 17 18 29 22 22 33 14 8 2 5 14 16 20 19 14 14 18 22 21 21 22 23 23 21 20 19 21 20 19 16 15 16 14 14 13 13 13 12 12 11 10 10 9 11
18 27 21 22 25 16 12 18 25 17 19 20 8 3 5 7 10 20 17 18 17 19 20 19 19 20 23 25 22 20 20 18 17 14 14 14 13 13 12 12 12 11 11 10 10 9 9 9 10
5 11 16 21 17 30 26 7 9 23 17 10 1 5 4 9 15 14 17 17 19 21 19 17 16 19 22 23 20 18 16 15 13 13 13 12 12 12 12 11 10 9 9 9 9 8 8 11 10